Flag for Netherlands Weather past 2 weeks in Nijmegen, Netherlands

Now
48 °F

Cool.


Feels Like: 41 °F
Forecast: 42 / 48 °F
Wind: 20 mph from South

Location: Volkel

Current Time: Feb 28, 2015 at 3:40:25 PM

Latest Report: Feb 28, 2015 at 2:55 PM


Visibility: N/A

Pressure: 29.95 "Hg

Humidity: 54%

Dew point: 32 °F

Location of NijmegenLocation

Historic Weather in Nijmegen — Graph

°F

Nijmegen temperature yesterday

Maximum temperature yesterday: 46 °F (at 12:04 AM)
Minimum temperature yesterday: 30 °F (at 10:25 PM)
Average temperature yesterday: 41 °F

Past Weeks' High & Low Weather Summary

 TemperatureHumidityPressure
High52 °F (Feb 14, 3:25 PM)100% (Feb 15, 5:55 AM)30.74 "Hg (Feb 15, 5:55 AM)
Low23 °F (Feb 16, 4:55 AM)50% (Feb 28, 2:25 PM)29.33 "Hg (Feb 23, 4:55 AM)
Average39 °F88%29.93 "Hg
* Reported Feb 13 2:25 PM — Feb 28 2:25 PM, Nijmegen, Weather by CustomWeather, © 2015

Note: Actual official high and low records may vary slightly from our data, if they occured in-between our weather recording intervals... More about our weather records

Advertising

Nijmegen weather history for previous 24 hours

 ConditionsComfort  
Time TempWeatherWind HumidityBarometerVisibility
2:25 PM
Sat, Feb 28
48 °FCool.18 mph50%29.98 "HgN/A
1:55 PM48 °FPassing clouds.17 mph58%29.98 "HgN/A
1:25 PM46 °FScattered clouds.16 mph57%30.01 "HgN/A
12:55 PM46 °FOvercast.13 mph62%30.04 "HgN/A
12:25 PM45 °FPartly sunny.14 mph66%30.04 "HgN/A
11:55 AM43 °FScattered clouds.15 mph66%30.04 "HgN/A
11:25 AM41 °FOvercast.13 mph76%30.04 "HgN/A
10:55 AM39 °FPartly sunny.12 mph75%30.04 "HgN/A
10:25 AM37 °FOvercast.13 mph81%30.07 "HgN/A
9:55 AM37 °FOvercast.10 mph81%30.07 "HgN/A
9:25 AM34 °FPartly sunny.10 mph87%30.09 "HgN/A
8:55 AM34 °FOvercast.8 mph87%30.09 "HgN/A
8:25 AM32 °FOvercast.8 mph93%30.09 "HgN/A
7:55 AM32 °FIce fog.8 mph93%30.09 "Hg6 mi
7:25 AM30 °FIce fog.8 mph93%30.09 "Hg6 mi
6:55 AM30 °FIce fog.9 mph93%30.09 "Hg5 mi
6:25 AM30 °FIce fog.8 mph93%30.09 "Hg6 mi
5:55 AM30 °FIce fog.7 mph93%30.09 "Hg6 mi
5:25 AM30 °FIce fog.7 mph93%30.09 "Hg6 mi
4:55 AM30 °FIce fog.6 mph93%30.09 "Hg5 mi
4:25 AM28 °FIce fog.5 mph100%30.12 "Hg5 mi
3:55 AM30 °FIce fog.3 mph100%30.12 "Hg5 mi
3:25 AM30 °FIce fog.5 mph93%30.12 "Hg5 mi
2:55 AM30 °FIce fog.5 mph100%30.12 "Hg5 mi
2:25 AM30 °FIce fog.5 mph93%30.15 "Hg6 mi
1:55 AM28 °FIce fog.6 mph100%30.12 "Hg4 mi
1:25 AM28 °FIce fog.7 mph100%30.12 "Hg5 mi
12:55 AM28 °FIce fog.6 mph93%30.12 "Hg5 mi
12:25 AM30 °FIce fog.5 mph100%30.15 "Hg5 mi
11:59 PM
Fri, Feb 27
32 °FIce fog.6 mph100%30.15 "Hg4 mi
11:25 PM32 °FChilly.5 mph93%30.15 "HgN/A
10:55 PM32 °FChilly.5 mph93%30.15 "HgN/A
10:25 PM30 °FChilly.5 mph93%30.15 "HgN/A
9:55 PM32 °FChilly.3 mph93%30.15 "HgN/A
9:25 PM32 °FChilly.5 mph93%30.15 "HgN/A
8:55 PM37 °FChilly.5 mph81%30.15 "HgN/A
8:25 PM37 °FChilly.5 mph81%30.12 "HgN/A
7:55 PM39 °FChilly.5 mph75%30.12 "HgN/A
7:25 PM39 °FChilly.5 mph75%30.12 "HgN/A
6:55 PM39 °FChilly.5 mph75%30.09 "HgN/A
6:25 PM41 °FPassing clouds.6 mph70%30.09 "HgN/A
5:55 PM43 °FQuite cool.8 mph61%30.07 "HgN/A
5:25 PM45 °FPassing clouds.8 mph61%30.07 "HgN/A
4:55 PM46 °FPartly sunny.8 mph57%30.07 "HgN/A
4:25 PM46 °FScattered clouds.8 mph57%30.07 "HgN/A
3:55 PM46 °FBroken clouds.8 mph57%30.04 "HgN/A
3:25 PM45 °FMostly cloudy.8 mph61%30.04 "HgN/A
Weather by CustomWeather, © 2015

See weather overviewHow to use our weather pages